Date,TemperatureHighF,TemperatureAvgF,TemperatureLowF,DewpointHighF,DewpointAvgF,DewpointLowF,HumidityHigh,HumidityAvg,HumidityLow,PressureMaxIn,PressureMinIn,WindSpeedMaxMPH,WindSpeedAvgMPH,GustSpeedMaxMPH,PrecipitationSumIn
2013-10-1,89,83,78,79,74,70,89,75,61,29.88,29.79,0,0,0,0.04
2013-10-2,89,84,79,76,72,70,82,69,55,29.91,29.82,0,0,0,0.00
2013-10-3,88,83,77,75,70,64,86,66,46,29.91,29.82,0,0,0,0.00
2013-10-4,88,82,79,73,70,68,79,67,53,29.88,29.82,0,0,0,0.00
2013-10-5,88,82,76,74,72,69,86,73,56,29.88,29.79,0,0,0,0.00
2013-10-6,79,67,56,74,49,29,96,57,19,30.09,29.88,25,12,34,0.39
2013-10-7,78,69,60,44,34,26,56,30,16,30.12,30.00,11,7,15,0.00
2013-10-8,79,70,61,57,49,32,80,50,26,30.06,29.97,7,5,13,0.00
2013-10-9,81,75,70,49,47,43,46,38,27,30.00,29.91,10,7,18,0.00
2013-10-10,82,76,72,66,57,47,73,52,36,29.97,29.88,12,8,22,0.00
2013-10-11,84,78,75,75,71,65,89,78,68,29.88,29.79,12,9,22,0.00
2013-10-12,86,81,77,78,75,74,91,83,68,29.97,29.85,10,1,18,0.00
2013-10-13,83,79,75,77,74,72,92,85,74,30.06,29.94,0,0,0,0.16
2013-10-14,86,81,77,75,70,65,92,71,53,30.03,29.88,0,0,0,0.00
2013-10-15,86,80,78,71,68,63,78,67,49,29.94,29.82,0,0,0,0.00
2013-10-16,79,73,64,73,66,60,95,80,68,30.00,29.85,13,6,19,0.08
2013-10-17,76,67,62,60,56,51,90,68,45,30.06,29.91,16,9,21,0.00
2013-10-18,79,75,69,75,70,57,93,84,65,29.94,29.76,14,8,21,0.36
2013-10-19,76,66,61,74,53,35,95,67,28,30.09,29.85,22,13,30,1.46
2013-10-20,76,67,58,63,53,36,84,63,40,30.06,29.88,9,7,15,0.00
2013-10-21,77,74,70,71,68,60,91,81,67,29.91,29.82,9,6,15,0.16
2013-10-22,78,70,62,58,48,34,87,50,24,30.09,30.00,16,10,21,0.00
2013-10-23,78,68,60,55,40,26,78,41,16,30.15,30.06,8,6,13,0.00
2013-10-24,78,70,62,59,50,39,84,53,34,30.18,30.09,10,6,17,0.00
2013-10-25,80,73,68,61,54,48,71,51,40,30.24,30.15,12,8,20,0.00
2013-10-26,80,74,71,64,58,54,76,58,44,30.15,30.03,10,8,20,0.00
2013-10-27,81,74,68,70,66,62,92,78,54,30.06,29.94,8,5,14,0.00
2013-10-28,81,76,72,72,68,66,91,79,61,30.03,29.94,11,4,19,0.00
2013-10-29,82,78,74,74,70,68,89,79,63,30.06,29.94,11,1,19,0.00
2013-10-30,85,79,76,77,75,73,92,87,75,29.97,29.79,0,0,0,0.00
2013-10-31,85,80,77,78,76,68,91,86,70,29.85,29.74,8,2,14,0.00